TVF3425 LTFM-LFLL

Flight info

Callsign TVF3425
Flight time 2h 47m
Altitude 36000
Route VADEN1D/35L VADEN DCT BAKLO N618 GOL DCT DOLAP DCT BAXON DCT BELOV DCT OSBUL DCT RONOP DCT GIGUS Z40 AMVAR
Aircraft B738/M-SDFGHIJ1RWXY/LB1

Departure

Time 2026-05-05 16:40
Airport İstanbul Airport (LTFM)

Arrival

Time 2026-05-05 19:27
Airport Lyon Saint-Exupéry Airport (LFLL)
Time Latitude Longitude Altitude Speed Heading
2026-05-05 15:59 41.26782 28.73442 333 ft 0 kts 179°
2026-05-05 16:28 41.26786 28.73442 328 ft 4 kts 179°
2026-05-05 16:28 41.26813 28.73441 332 ft 4 kts 178°
2026-05-05 16:28 41.26835 28.73440 333 ft 4 kts 187°
2026-05-05 16:29 41.26859 28.73452 329 ft 4 kts 230°
2026-05-05 16:29 41.26870 28.73482 329 ft 4 kts 263°
2026-05-05 16:29 41.26871 28.73510 329 ft 0 kts 269°
2026-05-05 16:31 41.26871 28.73508 333 ft 1 kts 269°
2026-05-05 16:32 41.26871 28.73478 333 ft 6 kts 269°
2026-05-05 16:32 41.26870 28.73421 333 ft 6 kts 269°
2026-05-05 16:32 41.26870 28.73362 331 ft 7 kts 269°
2026-05-05 16:32 41.26869 28.73278 330 ft 13 kts 269°
2026-05-05 16:33 41.26866 28.73136 333 ft 16 kts 269°
2026-05-05 16:33 41.26858 28.73020 331 ft 11 kts 239°
2026-05-05 16:33 41.26787 28.72994 331 ft 10 kts 179°
2026-05-05 16:33 41.26730 28.72971 328 ft 7 kts 226°
2026-05-05 16:34 41.26724 28.72956 333 ft 0 kts 245°
2026-05-05 16:34 41.26723 28.72954 333 ft 0 kts 245°
2026-05-05 16:38 41.26720 28.72937 331 ft 7 kts 258°
2026-05-05 16:38 41.26714 28.72808 333 ft 20 kts 268°
2026-05-05 16:39 41.26713 28.72619 332 ft 19 kts 270°
2026-05-05 16:39 41.26748 28.72519 333 ft 11 kts 340°
2026-05-05 16:39 41.26947 28.72510 330 ft 61 kts 359°
2026-05-05 16:39 41.27598 28.72496 332 ft 124 kts 359°
2026-05-05 16:40 41.28616 28.72465 481 ft 159 kts
2026-05-05 16:40 41.29785 28.72451 960 ft 179 kts
2026-05-05 16:40 41.31095 28.72462 1486 ft 195 kts
2026-05-05 16:40 41.32470 28.72478 2125 ft 199 kts
2026-05-05 16:41 41.33857 28.72498 2745 ft 199 kts 360°
2026-05-05 16:41 41.35236 28.72502 3352 ft 197 kts 355°
2026-05-05 16:41 41.36494 28.71789 3687 ft 211 kts 317°
2026-05-05 16:41 41.37364 28.70107 3943 ft 229 kts 303°
2026-05-05 16:42 41.38201 28.68276 4499 ft 233 kts 304°
2026-05-05 16:42 41.39056 28.66411 5174 ft 235 kts 304°
2026-05-05 16:42 41.39927 28.64529 5695 ft 249 kts 305°
2026-05-05 16:42 41.40858 28.62533 6405 ft 257 kts 306°
2026-05-05 16:43 41.41806 28.60507 7205 ft 259 kts 306°
2026-05-05 16:43 41.42766 28.58465 8014 ft 261 kts 306°
2026-05-05 16:43 41.43741 28.56400 8815 ft 265 kts 307°
2026-05-05 16:43 41.44728 28.54312 9614 ft 268 kts 307°
2026-05-05 16:44 41.45728 28.52202 10322 ft 274 kts 307°
2026-05-05 16:44 41.46794 28.49966 10509 ft 297 kts 307°
2026-05-05 16:44 41.47943 28.47557 10777 ft 317 kts 306°
2026-05-05 16:44 41.49136 28.45045 11371 ft 324 kts 306°
2026-05-05 16:45 41.50344 28.42493 12119 ft 327 kts 306°
2026-05-05 16:45 41.51563 28.39917 12879 ft 330 kts 306°
2026-05-05 16:45 41.52797 28.37308 13634 ft 335 kts 307°
2026-05-05 16:45 41.54051 28.34659 14288 ft 341 kts 307°
2026-05-05 16:46 41.55329 28.31960 14893 ft 348 kts 306°
2026-05-05 16:46 41.56630 28.29209 15576 ft 352 kts 306°
2026-05-05 16:46 41.57942 28.26428 16321 ft 355 kts 306°
2026-05-05 16:46 41.59265 28.23624 17013 ft 359 kts 306°
2026-05-05 16:47 41.60598 28.20795 17767 ft 361 kts 306°
2026-05-05 16:47 41.61942 28.17944 18462 ft 365 kts 306°
2026-05-05 16:47 41.63302 28.15053 19050 ft 369 kts 306°
2026-05-05 16:47 41.64674 28.12138 19633 ft 373 kts 306°
2026-05-05 16:48 41.66058 28.09192 20213 ft 376 kts 305°
2026-05-05 16:48 41.67458 28.06209 20796 ft 380 kts 305°
2026-05-05 16:48 41.68869 28.03200 21357 ft 384 kts 305°
2026-05-05 16:48 41.70295 28.00157 21926 ft 388 kts 305°
2026-05-05 16:49 41.71732 27.97086 22465 ft 392 kts 305°
2026-05-05 16:49 41.73184 27.93980 23016 ft 395 kts 304°
2026-05-05 16:49 41.74646 27.90849 23547 ft 399 kts 304°
2026-05-05 16:49 41.76122 27.87686 23968 ft 403 kts 304°
2026-05-05 16:50 41.77612 27.84489 24045 ft 405 kts 304°
2026-05-05 16:50 41.79100 27.81293 24059 ft 404 kts 304°
2026-05-05 16:50 41.80585 27.78096 24060 ft 404 kts 304°
2026-05-05 16:50 41.82069 27.74901 24064 ft 404 kts 304°
2026-05-05 16:51 41.83554 27.71701 24051 ft 404 kts 305°
2026-05-05 16:51 41.85035 27.68505 24060 ft 403 kts 305°
2026-05-05 16:51 41.86490 27.65362 24053 ft 402 kts 305°
2026-05-05 16:51 41.87964 27.62177 24049 ft 401 kts 305°
2026-05-05 16:52 41.89451 27.58959 24050 ft 400 kts 305°
2026-05-05 16:52 41.90895 27.55832 24052 ft 399 kts 305°
2026-05-05 16:52 41.92356 27.52665 24046 ft 399 kts 305°
2026-05-05 16:52 41.93818 27.49493 24053 ft 399 kts 304°
2026-05-05 16:53 41.95239 27.46404 24163 ft 400 kts 305°
2026-05-05 16:53 41.96746 27.43128 24277 ft 401 kts 305°
2026-05-05 16:53 41.98211 27.39937 24403 ft 402 kts 305°
2026-05-05 16:53 41.99682 27.36731 24520 ft 404 kts 305°
2026-05-05 16:54 42.01160 27.33507 24641 ft 405 kts 304°
2026-05-05 16:54 42.02640 27.30273 24759 ft 407 kts 304°
2026-05-05 16:54 42.04124 27.27029 24870 ft 408 kts 304°
2026-05-05 16:54 42.05610 27.23775 25002 ft 409 kts 304°
2026-05-05 16:55 42.07041 27.20461 25086 ft 411 kts 300°
2026-05-05 16:55 42.08237 27.16954 25214 ft 413 kts 297°
2026-05-05 16:55 42.09363 27.13388 25335 ft 414 kts 296°
2026-05-05 16:55 42.10469 27.09803 25453 ft 414 kts 296°
2026-05-05 16:56 42.11572 27.06219 25575 ft 415 kts 296°
2026-05-05 16:56 42.12683 27.02637 25697 ft 415 kts 296°
2026-05-05 16:56 42.13803 26.99049 25811 ft 415 kts 296°
2026-05-05 16:56 42.14928 26.95469 25936 ft 415 kts 296°
2026-05-05 16:57 42.16056 26.91890 26043 ft 415 kts 296°
2026-05-05 16:57 42.17186 26.88307 26173 ft 415 kts 296°
2026-05-05 16:57 42.18318 26.84723 26292 ft 416 kts 296°
2026-05-05 16:57 42.19449 26.81136 26420 ft 416 kts 296°
2026-05-05 16:58 42.20582 26.77542 26544 ft 417 kts 296°
2026-05-05 16:58 42.21713 26.73944 26668 ft 417 kts 296°
2026-05-05 16:58 42.22844 26.70345 26797 ft 417 kts 296°
2026-05-05 16:58 42.23974 26.66744 26925 ft 417 kts 296°
2026-05-05 16:59 42.25105 26.63131 27053 ft 417 kts 296°
2026-05-05 16:59 42.26234 26.59522 27171 ft 417 kts 296°
2026-05-05 16:59 42.27359 26.55919 27300 ft 416 kts 296°
2026-05-05 16:59 42.28480 26.52323 27428 ft 416 kts 296°
2026-05-05 17:00 42.29601 26.48725 27558 ft 415 kts 296°
2026-05-05 17:00 42.30718 26.45134 27683 ft 414 kts 296°
2026-05-05 17:00 42.31829 26.41557 27815 ft 413 kts 296°
2026-05-05 17:00 42.32937 26.37986 27944 ft 412 kts 296°
2026-05-05 17:01 42.34042 26.34419 28079 ft 411 kts 296°
2026-05-05 17:01 42.35141 26.30866 28187 ft 410 kts 296°
2026-05-05 17:01 42.36238 26.27316 28320 ft 409 kts 296°
2026-05-05 17:01 42.37334 26.23765 28450 ft 409 kts 296°
2026-05-05 17:02 42.38428 26.20217 28585 ft 408 kts 296°
2026-05-05 17:02 42.39459 26.16867 28711 ft 407 kts 296°
2026-05-05 17:02 42.40516 26.13428 28838 ft 407 kts 296°
2026-05-05 17:02 42.41601 26.09893 28974 ft 406 kts 296°
2026-05-05 17:03 42.42683 26.06362 29113 ft 406 kts 296°
2026-05-05 17:03 42.43761 26.02841 29232 ft 406 kts 296°
2026-05-05 17:03 42.44800 25.99444 29357 ft 406 kts 296°
2026-05-05 17:03 42.45780 25.96233 29475 ft 405 kts 296°
2026-05-05 17:04 42.46856 25.92706 29626 ft 405 kts 296°
2026-05-05 17:04 42.47928 25.89184 29763 ft 405 kts 296°
2026-05-05 17:04 42.49001 25.85658 29899 ft 404 kts 296°
2026-05-05 17:04 42.50070 25.82136 30043 ft 404 kts 296°
2026-05-05 17:05 42.51137 25.78618 30167 ft 404 kts 296°
2026-05-05 17:05 42.52202 25.75102 30288 ft 403 kts 296°
2026-05-05 17:05 42.53268 25.71579 30390 ft 403 kts 296°
2026-05-05 17:05 42.54328 25.68070 30514 ft 402 kts 296°
2026-05-05 17:06 42.55386 25.64561 30634 ft 402 kts 296°
2026-05-05 17:06 42.56431 25.61094 30748 ft 402 kts 296°
2026-05-05 17:06 42.58583 25.53949 30874 ft 418 kts 296°
2026-05-05 17:07 42.60815 25.46518 31027 ft 433 kts 296°
2026-05-05 17:07 42.61956 25.42703 31170 ft 437 kts 295°
2026-05-05 17:07 42.63097 25.38877 31530 ft 436 kts 296°
2026-05-05 17:08 42.64225 25.35087 32039 ft 431 kts 296°
2026-05-05 17:08 42.65347 25.31310 32445 ft 430 kts 295°
2026-05-05 17:08 42.66466 25.27542 32750 ft 431 kts 295°
2026-05-05 17:08 42.67589 25.23761 33062 ft 431 kts 295°
2026-05-05 17:09 42.68707 25.19992 33447 ft 430 kts 295°
2026-05-05 17:09 42.69821 25.16227 33781 ft 429 kts 295°
2026-05-05 17:09 42.70934 25.12465 34074 ft 428 kts 295°
2026-05-05 17:09 42.72043 25.08708 34273 ft 429 kts 295°
2026-05-05 17:10 42.73154 25.04943 34523 ft 429 kts 295°
2026-05-05 17:10 42.74261 25.01180 34828 ft 428 kts 295°
2026-05-05 17:10 42.75364 24.97424 35126 ft 427 kts 295°
2026-05-05 17:10 42.76467 24.93667 35385 ft 428 kts 295°
2026-05-05 17:11 42.77569 24.89907 35640 ft 428 kts 295°
2026-05-05 17:11 42.78670 24.86145 35921 ft 427 kts 295°
2026-05-05 17:11 42.80883 24.78571 36015 ft 432 kts 294°
2026-05-05 17:12 42.83081 24.71014 36011 ft 426 kts 295°
2026-05-05 17:12 42.85259 24.63512 36028 ft 427 kts 295°
2026-05-05 17:13 42.87440 24.55978 36031 ft 428 kts 294°
2026-05-05 17:13 42.89623 24.48415 36136 ft 429 kts 294°
2026-05-05 17:14 42.90695 24.44689 36494 ft 426 kts 294°
2026-05-05 17:14 42.91773 24.40934 36827 ft 424 kts 294°
2026-05-05 17:14 42.92864 24.37133 37057 ft 425 kts 294°
2026-05-05 17:14 42.93943 24.33372 37230 ft 426 kts 294°
2026-05-05 17:15 42.95008 24.29651 37461 ft 426 kts 294°
2026-05-05 17:15 42.96084 24.25884 37714 ft 426 kts 294°
2026-05-05 17:15 42.97170 24.22077 37978 ft 425 kts 294°
2026-05-05 17:15 42.98243 24.18311 38192 ft 425 kts 294°
2026-05-05 17:16 42.99298 24.14603 38446 ft 424 kts 293°
2026-05-05 17:16 43.00377 24.10806 38662 ft 424 kts 293°
2026-05-05 17:16 43.01445 24.07040 38792 ft 425 kts 293°
2026-05-05 17:16 43.02496 24.03329 38950 ft 425 kts 293°
2026-05-05 17:17 43.03561 23.99560 39111 ft 425 kts 293°
2026-05-05 17:17 43.04626 23.95791 39276 ft 425 kts 293°
2026-05-05 17:17 43.05687 23.92026 39408 ft 425 kts 293°
2026-05-05 17:17 43.06748 23.88256 39543 ft 425 kts 293°
2026-05-05 17:18 43.07807 23.84489 39775 ft 422 kts 293°
2026-05-05 17:18 43.08858 23.80744 39946 ft 422 kts 293°
2026-05-05 17:18 43.10965 23.73218 40006 ft 426 kts 292°
2026-05-05 17:19 43.13081 23.65641 40010 ft 426 kts 292°
2026-05-05 17:19 43.15191 23.58057 40012 ft 426 kts 292°
2026-05-05 17:20 43.17294 23.50477 40016 ft 426 kts 292°
2026-05-05 17:20 43.19392 23.42891 40008 ft 426 kts 292°
2026-05-05 17:21 43.21483 23.35311 40013 ft 425 kts 292°
2026-05-05 17:22 43.24602 23.23955 40006 ft 423 kts 292°
2026-05-05 17:22 43.26667 23.16406 40013 ft 422 kts 292°
2026-05-05 17:23 43.28708 23.08926 40007 ft 421 kts 292°
2026-05-05 17:23 43.30752 23.01408 40012 ft 420 kts 292°
2026-05-05 17:24 43.32788 22.93899 39993 ft 419 kts 292°
2026-05-05 17:24 43.34817 22.86395 40006 ft 418 kts 292°
2026-05-05 17:25 43.36837 22.78901 40001 ft 418 kts 291°
2026-05-05 17:25 43.38189 22.72528 40008 ft 419 kts 284°
2026-05-05 17:26 43.39368 22.64688 40005 ft 419 kts 283°
2026-05-05 17:26 43.40512 22.56839 39998 ft 419 kts 283°
2026-05-05 17:27 43.41686 22.48970 39996 ft 421 kts 283°
2026-05-05 17:27 43.42878 22.41080 39990 ft 422 kts 283°
2026-05-05 17:28 43.44075 22.33164 39983 ft 423 kts 283°
2026-05-05 17:28 43.45270 22.25234 39968 ft 424 kts 283°
2026-05-05 17:29 43.46461 22.17288 39970 ft 424 kts 283°
2026-05-05 17:29 43.47645 22.09344 39971 ft 424 kts 283°
2026-05-05 17:30 43.48824 22.01395 39967 ft 423 kts 283°
2026-05-05 17:30 43.49962 21.93685 39970 ft 423 kts 283°
2026-05-05 17:31 43.51128 21.85744 39973 ft 422 kts 283°
2026-05-05 17:31 43.52286 21.77814 39963 ft 422 kts 283°
2026-05-05 17:32 43.53437 21.69895 39961 ft 421 kts 283°
2026-05-05 17:32 43.54580 21.61987 39963 ft 420 kts 283°
2026-05-05 17:33 43.55717 21.54087 39952 ft 420 kts 283°
2026-05-05 17:33 43.56846 21.46197 39957 ft 419 kts 283°
2026-05-05 17:34 43.57970 21.38304 39948 ft 419 kts 283°
2026-05-05 17:34 43.59088 21.30410 39948 ft 419 kts 283°
2026-05-05 17:35 43.60200 21.22515 39951 ft 420 kts 283°
2026-05-05 17:35 43.61308 21.14608 39947 ft 420 kts 282°
2026-05-05 17:36 43.62411 21.06696 39949 ft 420 kts 282°
2026-05-05 17:36 43.63510 20.98773 39950 ft 421 kts 282°
2026-05-05 17:37 43.64598 20.90885 39948 ft 421 kts 282°
2026-05-05 17:37 43.65680 20.82999 39952 ft 422 kts 282°
2026-05-05 17:38 43.66766 20.75036 39953 ft 422 kts 282°
2026-05-05 17:38 43.67848 20.67066 39953 ft 423 kts 282°
2026-05-05 17:39 43.68926 20.59080 39946 ft 423 kts 282°
2026-05-05 17:39 43.69997 20.51096 39930 ft 422 kts 282°
2026-05-05 17:40 43.71058 20.43147 39948 ft 421 kts 282°
2026-05-05 17:40 43.72114 20.35189 39943 ft 420 kts 282°
2026-05-05 17:41 43.73163 20.27246 39948 ft 419 kts 282°
2026-05-05 17:41 43.74202 20.19327 39954 ft 418 kts 282°
2026-05-05 17:42 43.75233 20.11432 39978 ft 417 kts 282°
2026-05-05 17:42 43.76255 20.03553 39967 ft 416 kts 281°
2026-05-05 17:43 43.77269 19.95695 39984 ft 414 kts 281°
2026-05-05 17:43 43.78275 19.87856 39972 ft 414 kts 281°
2026-05-05 17:44 43.79275 19.80026 39990 ft 413 kts 281°
2026-05-05 17:44 43.80266 19.72212 40003 ft 412 kts 281°
2026-05-05 17:45 43.81252 19.64401 39999 ft 412 kts 281°
2026-05-05 17:45 43.82231 19.56596 40002 ft 411 kts 281°
2026-05-05 17:46 43.83204 19.48793 40003 ft 411 kts 281°
2026-05-05 17:46 43.84172 19.40986 40009 ft 411 kts 281°
2026-05-05 17:47 43.85134 19.33178 40009 ft 411 kts 281°
2026-05-05 17:47 43.86092 19.25363 40025 ft 412 kts 281°
2026-05-05 17:48 43.87048 19.17523 40007 ft 412 kts 281°
2026-05-05 17:48 43.87981 19.09815 40025 ft 412 kts 280°
2026-05-05 17:49 43.88930 19.01927 40029 ft 412 kts 280°
2026-05-05 17:49 43.89869 18.94080 40041 ft 412 kts 280°
2026-05-05 17:50 43.90803 18.86232 40036 ft 412 kts 280°
2026-05-05 17:50 43.91731 18.78386 40035 ft 412 kts 280°
2026-05-05 17:51 43.92654 18.70532 40049 ft 412 kts 279°
2026-05-05 17:51 43.93565 18.62728 40055 ft 412 kts 279°
2026-05-05 17:52 43.94476 18.54877 40058 ft 412 kts 279°
2026-05-05 17:52 43.95375 18.47083 40070 ft 411 kts 279°
2026-05-05 17:53 43.96272 18.39256 40063 ft 410 kts 279°
2026-05-05 17:53 43.97161 18.31456 40071 ft 410 kts 279°
2026-05-05 17:54 43.98045 18.23652 40066 ft 409 kts 279°
2026-05-05 17:54 43.98922 18.15851 40065 ft 408 kts 279°
2026-05-05 17:55 43.99707 18.08835 40060 ft 408 kts 279°
2026-05-05 17:55 44.00567 18.01095 40058 ft 408 kts 279°
2026-05-05 17:56 44.01425 17.93321 40056 ft 407 kts 278°
2026-05-05 17:56 44.02278 17.85547 40047 ft 407 kts 278°
2026-05-05 17:57 44.03125 17.77784 40046 ft 406 kts 278°
2026-05-05 17:57 44.03967 17.70011 40054 ft 407 kts 278°
2026-05-05 17:58 44.04802 17.62242 40057 ft 407 kts 278°
2026-05-05 17:58 44.05635 17.54454 40069 ft 407 kts 278°
2026-05-05 17:59 44.06463 17.46656 40063 ft 408 kts 278°
2026-05-05 17:59 44.07287 17.38842 40056 ft 409 kts 278°
2026-05-05 18:00 44.07969 17.32337 40061 ft 409 kts 278°
2026-05-05 18:00 44.08923 17.23171 40063 ft 410 kts 278°
2026-05-05 18:01 44.09729 17.15373 40068 ft 410 kts 278°
2026-05-05 18:01 44.10536 17.07505 40055 ft 411 kts 277°
2026-05-05 18:02 44.11338 16.99636 40064 ft 411 kts 277°
2026-05-05 18:02 44.12136 16.91756 40060 ft 411 kts 277°
2026-05-05 18:03 44.12928 16.83872 40060 ft 411 kts 277°
2026-05-05 18:03 44.13714 16.75992 40067 ft 411 kts 277°
2026-05-05 18:04 44.14496 16.68101 40069 ft 412 kts 277°
2026-05-05 18:04 44.15273 16.60200 40072 ft 412 kts 277°
2026-05-05 18:05 44.16045 16.52291 40064 ft 413 kts 277°
2026-05-05 18:05 44.16813 16.44361 40068 ft 413 kts 277°
2026-05-05 18:06 44.17577 16.36420 40059 ft 414 kts 277°
2026-05-05 18:06 44.18336 16.28470 40060 ft 414 kts 277°
2026-05-05 18:07 44.19090 16.20514 40054 ft 414 kts 277°
2026-05-05 18:07 44.19837 16.12568 40066 ft 414 kts 277°
2026-05-05 18:08 44.20574 16.04670 40056 ft 414 kts 277°
2026-05-05 18:08 44.21315 15.96673 40063 ft 413 kts 277°
2026-05-05 18:09 44.22039 15.88795 40056 ft 412 kts 277°
2026-05-05 18:09 44.22761 15.80876 40061 ft 411 kts 277°
2026-05-05 18:10 44.23475 15.72984 40052 ft 410 kts 276°
2026-05-05 18:10 44.24182 15.65110 40042 ft 409 kts 276°
2026-05-05 18:11 44.24881 15.57259 40048 ft 407 kts 276°
2026-05-05 18:11 44.25461 15.50698 40046 ft 406 kts 276°
2026-05-05 18:12 44.26141 15.42943 40055 ft 405 kts 276°
2026-05-05 18:12 44.26824 15.35101 40045 ft 404 kts 276°
2026-05-05 18:13 44.27490 15.27383 40044 ft 403 kts 276°
2026-05-05 18:13 44.28155 15.19620 40044 ft 403 kts 276°
2026-05-05 18:14 44.28814 15.11867 40040 ft 403 kts 276°
2026-05-05 18:14 44.29469 15.04100 40046 ft 403 kts 276°
2026-05-05 18:15 44.30117 14.96338 40031 ft 403 kts 276°
2026-05-05 18:15 44.30762 14.88552 40032 ft 403 kts 276°
2026-05-05 18:16 44.31402 14.80771 40031 ft 404 kts 276°
2026-05-05 18:16 44.32037 14.72983 40028 ft 404 kts 276°
2026-05-05 18:17 44.32590 14.66141 40029 ft 404 kts 276°
2026-05-05 18:17 44.33215 14.58341 40024 ft 404 kts 276°
2026-05-05 18:18 44.33835 14.50540 40018 ft 404 kts 276°
2026-05-05 18:18 44.34450 14.42732 40022 ft 404 kts 276°
2026-05-05 18:19 44.35060 14.34923 40021 ft 404 kts 276°
2026-05-05 18:19 44.35665 14.27106 40016 ft 405 kts 275°
2026-05-05 18:20 44.36265 14.19283 40015 ft 405 kts 275°
2026-05-05 18:20 44.36859 14.11461 40011 ft 405 kts 275°
2026-05-05 18:21 44.37448 14.03642 40005 ft 405 kts 275°
2026-05-05 18:21 44.38032 13.95812 40015 ft 405 kts 275°
2026-05-05 18:22 44.38611 13.87978 40003 ft 405 kts 275°
2026-05-05 18:22 44.39181 13.80198 40002 ft 405 kts 275°
2026-05-05 18:23 44.39749 13.72362 40000 ft 405 kts 275°
2026-05-05 18:23 44.40258 13.65270 39996 ft 405 kts 275°
2026-05-05 18:24 44.40817 13.57427 39994 ft 405 kts 275°
2026-05-05 18:24 44.41371 13.49586 39991 ft 405 kts 275°
2026-05-05 18:25 44.42267 13.41809 39996 ft 406 kts 282°
2026-05-05 18:25 44.43631 13.34140 39985 ft 406 kts 282°
2026-05-05 18:26 44.44994 13.26475 39981 ft 406 kts 282°
2026-05-05 18:26 44.46320 13.18797 39983 ft 406 kts 282°
2026-05-05 18:27 44.47629 13.11106 39972 ft 406 kts 281°
2026-05-05 18:27 44.48928 13.03418 39972 ft 406 kts 281°
2026-05-05 18:28 44.50869 12.91883 39967 ft 405 kts 281°
2026-05-05 18:28 44.52156 12.84192 39975 ft 406 kts 281°
2026-05-05 18:29 44.53440 12.76492 39967 ft 406 kts 281°
2026-05-05 18:29 44.54672 12.68778 39966 ft 405 kts 279°
2026-05-05 18:30 44.55660 12.61011 39968 ft 405 kts 278°
2026-05-05 18:30 44.56596 12.53226 39967 ft 405 kts 278°
2026-05-05 18:31 44.57544 12.45448 39970 ft 405 kts 278°
2026-05-05 18:31 44.58494 12.37713 39969 ft 405 kts 278°
2026-05-05 18:32 44.59451 12.29925 39970 ft 405 kts 278°
2026-05-05 18:32 44.60403 12.22140 39972 ft 405 kts 277°
2026-05-05 18:33 44.61349 12.14356 39994 ft 405 kts 277°
2026-05-05 18:33 44.62291 12.06563 39982 ft 405 kts 277°
2026-05-05 18:34 44.63228 11.98756 39992 ft 406 kts 277°
2026-05-05 18:34 44.64160 11.90946 39993 ft 406 kts 277°
2026-05-05 18:35 44.65089 11.83123 40001 ft 406 kts 277°
2026-05-05 18:35 44.66013 11.75283 40013 ft 407 kts 277°
2026-05-05 18:36 44.66933 11.67433 40006 ft 408 kts 277°
2026-05-05 18:36 44.67850 11.59565 39999 ft 408 kts 277°
2026-05-05 18:37 44.68761 11.51691 39988 ft 408 kts 276°
2026-05-05 18:37 44.69668 11.43814 39984 ft 408 kts 276°
2026-05-05 18:38 44.70562 11.35988 39993 ft 409 kts 276°
2026-05-05 18:38 44.71464 11.28046 39985 ft 409 kts 276°
2026-05-05 18:39 44.72348 11.20216 40028 ft 408 kts 276°
2026-05-05 18:39 44.73233 11.12332 40026 ft 408 kts 276°
2026-05-05 18:40 44.74110 11.04462 40028 ft 407 kts 276°
2026-05-05 18:40 44.74980 10.96596 40020 ft 407 kts 276°
2026-05-05 18:41 44.75845 10.88735 40022 ft 406 kts 276°
2026-05-05 18:41 44.76703 10.80880 40019 ft 406 kts 276°
2026-05-05 18:42 44.77555 10.73032 40022 ft 406 kts 276°
2026-05-05 18:42 44.78401 10.65191 40032 ft 406 kts 275°
2026-05-05 18:43 44.79242 10.57337 40024 ft 406 kts 275°
2026-05-05 18:43 44.80079 10.49469 40014 ft 406 kts 275°
2026-05-05 18:44 44.80911 10.41598 40015 ft 407 kts 275°
2026-05-05 18:44 44.81739 10.33719 40000 ft 407 kts 275°
2026-05-05 18:45 44.82595 10.25835 39971 ft 409 kts 276°
2026-05-05 18:45 44.83622 10.17942 39970 ft 410 kts 277°
2026-05-05 18:46 44.84674 10.10044 39973 ft 411 kts 277°
2026-05-05 18:46 44.85707 10.02123 39970 ft 411 kts 277°
2026-05-05 18:47 44.86726 9.94182 39952 ft 412 kts 277°
2026-05-05 18:47 44.87736 9.86224 39945 ft 413 kts 276°
2026-05-05 18:48 44.88742 9.78247 39944 ft 414 kts 276°
2026-05-05 18:48 44.89743 9.70260 39940 ft 414 kts 276°
2026-05-05 18:49 44.90741 9.62261 39945 ft 414 kts 276°
2026-05-05 18:49 44.91731 9.54270 39952 ft 414 kts 276°
2026-05-05 18:50 44.92716 9.46272 39946 ft 413 kts 276°
2026-05-05 18:50 44.93695 9.38283 39958 ft 413 kts 276°
2026-05-05 18:51 44.94667 9.30298 39949 ft 413 kts 276°
2026-05-05 18:51 44.95633 9.22307 39962 ft 413 kts 276°
2026-05-05 18:52 44.96588 9.14365 39964 ft 413 kts 276°
2026-05-05 18:52 44.97544 9.06357 39959 ft 414 kts 276°
2026-05-05 18:53 44.98497 8.98337 39951 ft 414 kts 276°
2026-05-05 18:53 44.99445 8.90304 39951 ft 415 kts 276°
2026-05-05 18:54 45.00394 8.82212 39967 ft 415 kts 275°
2026-05-05 18:54 45.01332 8.74156 39977 ft 416 kts 275°
2026-05-05 18:55 45.02261 8.66134 39964 ft 417 kts 275°
2026-05-05 18:55 45.03192 8.58045 39965 ft 417 kts 275°
2026-05-05 18:56 45.04118 8.49944 39959 ft 418 kts 275°
2026-05-05 18:56 45.05039 8.41835 39973 ft 418 kts 275°
2026-05-05 18:57 45.05955 8.33712 39958 ft 419 kts 275°
2026-05-05 18:57 45.06867 8.25578 39953 ft 418 kts 275°
2026-05-05 18:58 45.07628 8.18748 39697 ft 421 kts 275°
2026-05-05 18:58 45.08081 8.14662 39483 ft 419 kts 275°
2026-05-05 18:58 45.08529 8.10614 39244 ft 414 kts 275°
2026-05-05 18:59 45.08973 8.06601 39040 ft 412 kts 274°
2026-05-05 18:59 45.09412 8.02593 38815 ft 412 kts 274°
2026-05-05 18:59 45.09844 7.98646 38598 ft 411 kts 274°
2026-05-05 18:59 45.10279 7.94658 38140 ft 410 kts 274°
2026-05-05 19:00 45.10711 7.90686 37628 ft 406 kts 274°
2026-05-05 19:00 45.11140 7.86738 37056 ft 405 kts 273°
2026-05-05 19:00 45.11563 7.82824 36649 ft 399 kts 272°
2026-05-05 19:00 45.11981 7.78959 36241 ft 395 kts 272°
2026-05-05 19:01 45.12391 7.75143 35838 ft 389 kts 272°
2026-05-05 19:01 45.12795 7.71378 35432 ft 386 kts 271°
2026-05-05 19:01 45.13194 7.67602 35075 ft 390 kts 271°
2026-05-05 19:01 45.13597 7.63768 34660 ft 396 kts 271°
2026-05-05 19:02 45.14004 7.59899 34241 ft 397 kts 271°
2026-05-05 19:02 45.14411 7.56050 33815 ft 393 kts 271°
2026-05-05 19:02 45.14815 7.52242 33355 ft 389 kts 271°
2026-05-05 19:02 45.15212 7.48457 32959 ft 390 kts 271°
2026-05-05 19:03 45.15610 7.44619 32542 ft 397 kts 271°
2026-05-05 19:03 45.16012 7.40726 32118 ft 403 kts 271°
2026-05-05 19:03 45.16420 7.36786 31693 ft 405 kts 272°
2026-05-05 19:03 45.16831 7.32834 31273 ft 405 kts 272°
2026-05-05 19:04 45.17241 7.28879 30850 ft 407 kts 272°
2026-05-05 19:04 45.17649 7.24904 30417 ft 409 kts 272°
2026-05-05 19:04 45.18058 7.20913 29949 ft 410 kts 272°
2026-05-05 19:04 45.18501 7.16903 29485 ft 414 kts 276°
2026-05-05 19:05 45.19283 7.12943 29035 ft 421 kts 285°
2026-05-05 19:05 45.20397 7.09077 28580 ft 427 kts 286°
2026-05-05 19:05 45.21484 7.05149 27924 ft 429 kts 282°
2026-05-05 19:05 45.22076 7.01065 27327 ft 417 kts 273°
2026-05-05 19:06 45.22481 6.97020 26786 ft 411 kts 273°
2026-05-05 19:06 45.22881 6.93017 26331 ft 409 kts 273°
2026-05-05 19:06 45.23286 6.89031 25858 ft 407 kts 273°
2026-05-05 19:06 45.23696 6.85066 25421 ft 406 kts 273°
2026-05-05 19:07 45.24112 6.81105 24960 ft 405 kts 274°
2026-05-05 19:07 45.24529 6.77159 24503 ft 404 kts 274°
2026-05-05 19:07 45.24946 6.73213 24067 ft 404 kts 274°
2026-05-05 19:07 45.25364 6.69267 23630 ft 405 kts 274°
2026-05-05 19:08 45.25781 6.65316 23122 ft 405 kts 274°
2026-05-05 19:08 45.26197 6.61369 22619 ft 403 kts 274°
2026-05-05 19:08 45.26609 6.57448 22183 ft 400 kts 274°
2026-05-05 19:08 45.27018 6.53553 21727 ft 397 kts 274°
2026-05-05 19:09 45.27421 6.49695 21290 ft 394 kts 274°
2026-05-05 19:09 45.27818 6.45859 20859 ft 391 kts 274°
2026-05-05 19:09 45.28213 6.42044 20413 ft 389 kts 274°
2026-05-05 19:09 45.28603 6.38260 19998 ft 387 kts 274°
2026-05-05 19:10 45.28991 6.34483 19572 ft 385 kts 275°
2026-05-05 19:10 45.29376 6.30734 19154 ft 383 kts 275°
2026-05-05 19:10 45.29757 6.27004 18737 ft 381 kts 275°
2026-05-05 19:10 45.30133 6.23295 18322 ft 378 kts 275°
2026-05-05 19:11 45.30502 6.19655 17866 ft 376 kts 275°
2026-05-05 19:11 45.30878 6.15939 17438 ft 375 kts 275°
2026-05-05 19:11 45.31436 6.12385 17078 ft 374 kts 287°
2026-05-05 19:11 45.32618 6.09085 16798 ft 377 kts 298°
2026-05-05 19:12 45.34230 6.06098 16483 ft 385 kts 309°
2026-05-05 19:12 45.36072 6.03350 16188 ft 383 kts 310°
2026-05-05 19:12 45.37915 6.00635 15878 ft 380 kts 310°
2026-05-05 19:12 45.39745 5.97937 15564 ft 378 kts 310°
2026-05-05 19:13 45.41562 5.95244 15258 ft 376 kts 310°
2026-05-05 19:13 45.43368 5.92554 14970 ft 375 kts 310°
2026-05-05 19:13 45.45161 5.89872 14672 ft 374 kts 310°
2026-05-05 19:13 45.46949 5.87189 14373 ft 372 kts 310°
2026-05-05 19:14 45.48726 5.84515 14054 ft 372 kts 310°
2026-05-05 19:14 45.50506 5.81832 13710 ft 372 kts 310°
2026-05-05 19:14 45.52281 5.79156 13311 ft 371 kts 310°
2026-05-05 19:14 45.54048 5.76487 12900 ft 369 kts 310°
2026-05-05 19:15 45.55801 5.73838 12512 ft 365 kts 310°
2026-05-05 19:15 45.57526 5.71230 12123 ft 358 kts 310°
2026-05-05 19:15 45.59220 5.68668 11735 ft 351 kts 310°
2026-05-05 19:15 45.60879 5.66154 11387 ft 344 kts 310°
2026-05-05 19:16 45.62499 5.63697 11037 ft 334 kts 309°
2026-05-05 19:16 45.64063 5.61326 10659 ft 321 kts 309°
2026-05-05 19:16 45.65568 5.59041 10282 ft 310 kts 309°
2026-05-05 19:16 45.67015 5.56842 10009 ft 297 kts 308°
2026-05-05 19:17 45.68395 5.54742 9704 ft 293 kts 308°
2026-05-05 19:17 45.69801 5.52596 9342 ft 291 kts 308°
2026-05-05 19:17 45.71182 5.50485 9031 ft 290 kts 308°
2026-05-05 19:17 45.72558 5.48380 8694 ft 289 kts 309°
2026-05-05 19:18 45.73927 5.46286 8358 ft 287 kts 310°
2026-05-05 19:18 45.75289 5.44203 8032 ft 286 kts 310°
2026-05-05 19:18 45.76643 5.42131 7706 ft 285 kts 310°
2026-05-05 19:18 45.77993 5.40063 7383 ft 283 kts 310°
2026-05-05 19:19 45.79334 5.38009 7058 ft 282 kts 310°
2026-05-05 19:19 45.80666 5.35966 6745 ft 280 kts 310°
2026-05-05 19:19 45.81993 5.33929 6422 ft 279 kts 310°
2026-05-05 19:19 45.83315 5.31900 6095 ft 278 kts 310°
2026-05-05 19:20 45.84631 5.29878 5764 ft 277 kts 310°
2026-05-05 19:20 45.85925 5.27888 5444 ft 276 kts 310°
2026-05-05 19:20 45.87239 5.25866 5113 ft 269 kts 310°
2026-05-05 19:20 45.88470 5.23973 4871 ft 260 kts 310°
2026-05-05 19:21 45.89704 5.22073 4596 ft 254 kts 310°
2026-05-05 19:21 45.90879 5.20262 4331 ft 247 kts 310°
2026-05-05 19:21 45.92048 5.18459 4061 ft 240 kts 310°
2026-05-05 19:21 45.93078 5.16629 3800 ft 233 kts 292°
2026-05-05 19:22 45.93361 5.14434 3573 ft 223 kts 266°
2026-05-05 19:22 45.93247 5.12236 3358 ft 221 kts 263°
2026-05-05 19:22 45.93081 5.10037 3128 ft 222 kts 261°
2026-05-05 19:22 45.92530 5.08031 3013 ft 218 kts 228°
2026-05-05 19:23 45.91196 5.06978 2998 ft 223 kts 188°
2026-05-05 19:23 45.89686 5.07173 3006 ft 214 kts 172°
2026-05-05 19:23 45.88251 5.07405 2996 ft 207 kts 176°
2026-05-05 19:23 45.86828 5.07566 2981 ft 196 kts 177°
2026-05-05 19:24 45.85531 5.07720 3003 ft 186 kts 177°
2026-05-05 19:24 45.84253 5.07875 2899 ft 186 kts 177°
2026-05-05 19:24 45.82969 5.08031 2671 ft 185 kts 176°
2026-05-05 19:24 45.81722 5.08184 2430 ft 174 kts 176°
2026-05-05 19:25 45.80558 5.08326 2192 ft 162 kts 176°
2026-05-05 19:25 45.79485 5.08457 2022 ft 148 kts 176°
2026-05-05 19:25 45.78511 5.08576 1824 ft 134 kts 176°
2026-05-05 19:25 45.77608 5.08685 1637 ft 130 kts 176°
2026-05-05 19:26 45.76697 5.08796 1464 ft 133 kts 175°
2026-05-05 19:26 45.75775 5.08915 1296 ft 132 kts 175°
2026-05-05 19:26 45.74865 5.09026 1095 ft 131 kts 175°
2026-05-05 19:26 45.73971 5.09133 910 ft 128 kts 175°
2026-05-05 19:27 45.73097 5.09236 794 ft 116 kts 175°
2026-05-05 19:27 45.72512 5.09309 811 ft 53 kts 175°
2026-05-05 19:27 45.72248 5.09327 814 ft 33 kts 185°
2026-05-05 19:27 45.72050 5.09249 812 ft 24 kts 205°
2026-05-05 19:28 45.71994 5.09192 813 ft 0 kts 228°
2026-05-05 19:28 45.71990 5.09167 812 ft 7 kts 261°
2026-05-05 19:28 45.71983 5.09083 810 ft 6 kts 264°
2026-05-05 19:28 45.71982 5.09073 810 ft 0 kts 264°
2026-05-05 19:29 45.71981 5.09056 810 ft 4 kts 263°
2026-05-05 19:29 45.71975 5.08981 810 ft 12 kts 264°
2026-05-05 19:29 45.71965 5.08825 810 ft 12 kts 264°
2026-05-05 19:30 45.71957 5.08731 808 ft 12 kts 263°
2026-05-05 19:30 45.71949 5.08603 804 ft 14 kts 265°
2026-05-05 19:30 45.71926 5.08488 801 ft 10 kts 227°
2026-05-05 19:30 45.71857 5.08473 801 ft 10 kts 176°
2026-05-05 19:31 45.71789 5.08482 801 ft 10 kts 175°
2026-05-05 19:31 45.71722 5.08482 801 ft 10 kts 195°
2026-05-05 19:31 45.71684 5.08404 799 ft 11 kts 258°
2026-05-05 19:31 45.71676 5.08293 799 ft 9 kts 266°
2026-05-05 19:32 45.71648 5.08227 800 ft 8 kts 200°
2026-05-05 19:32 45.71612 5.08213 801 ft 3 kts 194°
2026-05-05 19:32 45.71605 5.08211 801 ft 0 kts 194°